Location: Pinon Hills
(34.4429°N, 117.6403°W)
Time: 18:49:15
(UTC-07:00)

Uosat F - Visible Passes

Search period start: 18 April 2014 00:00
Search period end: 28 April 2014 00:00
Orbit: 751 x 763 km, 98.7° (Epoch: 18 April)

Date Brightness Start Highest point End Pass type
(mag) Time Alt. Az. Time Alt. Az. Time Alt. Az.
18 Apr 12.5 04:21:03 10° NNE 04:25:38 36° E 04:30:12 10° SSE visible
19 Apr 13.7 03:43:47 10° ENE 03:46:20 14° E 03:48:52 10° SE visible
19 Apr 11.2 05:20:31 10° N 05:25:23 53° WNW 05:30:13 10° SSW visible
20 Apr 11.6 04:41:27 10° NNE 04:46:23 59° ESE 04:51:18 10° S visible
21 Apr 13.2 04:03:15 10° NE 04:07:11 23° E 04:11:06 10° SSE visible
21 Apr 11.8 05:41:32 10° N 05:45:58 33° WNW 05:50:23 10° SW visible
22 Apr 11.0 05:02:04 10° NNE 05:07:05 84° WNW 05:12:04 10° SSW visible
23 Apr 12.4 04:23:21 10° NNE 04:27:59 37° E 04:32:35 10° SSE visible
24 Apr 13.7 03:45:58 10° ENE 03:48:41 15° E 03:51:23 10° SE visible
24 Apr 11.3 05:22:52 10° N 05:27:43 51° WNW 05:32:32 10° SSW visible
25 Apr 11.5 04:43:46 10° NNE 04:48:43 62° ESE 04:53:39 10° S visible
26 Apr 13.1 04:05:31 10° NE 04:09:32 24° E 04:13:31 10° SSE visible
27 Apr 11.0 05:04:23 10° N 05:09:24 81° WNW 05:14:24 10° SSW visible
